Weather History for Laramie, WY

Change the Weather History Date:

Wednesday, November 7, 2012

  Actual Average Record
Temperature  
Mean Temperature 47 °F 33 °F  
Max Temperature 64 °F 46 °F 67 °F (1999)
Min Temperature 29 °F 21 °F -7 °F (1990)
Degree Days  
Heating Degree Days 18 32  
Month to date heating degree days 160 212  
Since 1 July heating degree days 1225 1455  
Cooling Degree Days 0 0  
Month to date cooling degree days 0 0  
Year to date cooling degree days 211 67  
Moisture  
Dew Point 18 °F    
Average Humidity 43    
Maximum Humidity 69    
Minimum Humidity 16    
Precipitation  
Precipitation 0.00 in 0.02 in 0.65 in (1970)
Month to date precipitation 0.00 0.15  
Year to date precipitation 5.90 10.21  
Sea Level Pressure  
Sea Level Pressure 29.95 in    
Wind  
Wind Speed 13 mph (SW)    
Max Wind Speed 26 mph    
Max Gust Speed 33 mph    
Visibility 10 miles    
Events      
T = Trace of Precipitation, MM = Missing Value Source: NWS Daily Summary

Daily Weather History Graph

Daily Weather History Graph

Search for Another Location

Airport:

Trip Planner

Search our weather history database for the weather conditions in past years. The results will help you decide how hot, cold, wet, or windy it might be!

Date:

Astronomy

Nov. 07, 2012 Rise Set
Actual Time 6:41 AM MST 4:50 PM MST
Civil Twilight 6:12 AM MST 5:19 PM MST
Nautical Twilight 5:39 AM MST 5:52 PM MST
Astronomical Twilight 5:07 AM MST 6:24 PM MST
Moon No Moon Rise 1:04 PM MST (11/7)
Length of Visible Light 11h 06m
Length of Day
10h 08m
Last Quarter, 42% of the Moon is Illuminated
Nov 7
Last Quarter
Nov 13
New
Nov 20
First Quarter
Nov 28
Full
Dec 6
Last Quarter

Hourly Weather History & Observations

Time (MST) Temp. Windchill Dew Point Humidity Pressure Visibility Wind Dir Wind Speed Gust Speed Precip Events Conditions
12:53 AM 32.0 °F - 21.9 °F 66% 30.09 in 10.0 mi Calm Calm - N/A   Clear
1:53 AM 34.0 °F 25.5 °F 23.0 °F 64% 30.05 in 10.0 mi WSW 11.5 mph - N/A   Clear
2:53 AM 39.0 °F 31.4 °F 21.9 °F 50% 30.01 in 10.0 mi SW 12.7 mph - N/A   Clear
3:53 AM 39.9 °F 35.8 °F 21.0 °F 47% 30.00 in 10.0 mi South 5.8 mph - N/A   Clear
5:53 AM 42.1 °F 36.1 °F 21.0 °F 43% 30.04 in 10.0 mi SSW 10.4 mph - N/A   Clear
6:53 AM 41.0 °F 35.8 °F 19.9 °F 43% 30.06 in 10.0 mi South 8.1 mph - N/A   Clear
7:51 AM 46.4 °F 39.5 °F 21.2 °F 37% 30.17 in 10.0 mi SSW 17.3 mph 21.9 mph N/A   Clear
7:53 AM 46.9 °F - 21.0 °F 36% 30.04 in 10.0 mi SSW 17.3 mph 21.9 mph N/A   Clear
8:53 AM 53.1 °F - 19.9 °F 27% 30.02 in 10.0 mi SW 18.4 mph 24.2 mph N/A   Clear
9:53 AM 57.9 °F - 19.0 °F 22% 30.00 in 10.0 mi SW 19.6 mph 29.9 mph N/A   Clear
10:53 AM 61.0 °F - 18.0 °F 19% 29.97 in 10.0 mi SW 26.5 mph 33.4 mph N/A   Clear
11:53 AM 61.0 °F - 17.1 °F 18% 29.93 in 10.0 mi SW 20.7 mph 29.9 mph N/A   Clear
12:53 PM 63.0 °F - 16.0 °F 16% 29.88 in 10.0 mi WSW 18.4 mph 23.0 mph N/A   Clear
1:53 PM 63.0 °F - 17.1 °F 17% 29.85 in 10.0 mi WSW 18.4 mph 25.3 mph N/A   Clear
2:53 PM 62.1 °F - 18.0 °F 18% 29.82 in 10.0 mi WSW 21.9 mph - N/A   Clear
4:53 PM 51.1 °F - 12.9 °F 22% 29.89 in 10.0 mi West 10.4 mph - N/A   Clear
5:53 PM 48.0 °F - 12.9 °F 24% 29.90 in 10.0 mi Calm Calm - N/A   Clear
6:53 PM 48.0 °F - 15.1 °F 27% 29.90 in 10.0 mi SW 9.2 mph - N/A   Clear
7:53 PM 39.9 °F 35.1 °F 16.0 °F 38% 29.91 in 10.0 mi WSW 6.9 mph - N/A   Clear
8:53 PM 43.0 °F 35.7 °F 18.0 °F 37% 29.86 in 10.0 mi SW 15.0 mph - N/A   Clear
9:53 PM 43.0 °F 38.2 °F 18.0 °F 37% 29.83 in 10.0 mi South 8.1 mph - N/A   Clear
10:53 PM 39.0 °F 32.3 °F 18.0 °F 43% 29.83 in 10.0 mi South 10.4 mph - N/A   Clear
11:53 PM 45.0 °F 40.1 °F 18.0 °F 34% 29.81 in 10.0 mi SSW 9.2 mph - N/A   Clear